Home   Weather   Tehran   Past weeks

Flag for Iran Past Weather in Tehran, Iran — Yesterday and Last 2 Weeks

Now
79 °F

Clear.


Feels Like: 77 °F
Forecast: 58 / 86 °F
Wind: 8 mph from North

Location: Tehran-Mehrabad

Current Time: Sep 26, 2016 at 8:52:31 PM

Latest Report: Sep 26, 2016 at 8:00 PM


Visibility: 10 mi

Pressure: 29.98 "Hg (26.20 "Hg at 1179m altitude)

Humidity: 5%

Dew Point: 3 °F

Location of TehranLocation

Past Weather in Tehran — Graph

°F

Tehran Temperature Yesterday

Maximum temperature yesterday: 86 °F (at 2:30 PM)
Minimum temperature yesterday: 61 °F (at 5:30 AM)
Average temperature yesterday: 74 °F

High & Low Weather Summary for the Past Weeks

 TemperatureHumidityPressure
High95 °F (Sep 15, 4:00 PM)60% (Sep 13, 5:30 AM)30.09 "Hg (Sep 13, 5:30 AM)
Low61 °F (Sep 25, 5:30 AM)5% (Sep 18, 5:00 PM)29.77 "Hg (Sep 24, 4:30 PM)
Average81 °F19%29.94 "Hg
* Reported Sep 11 8:30 PM — Sep 26 7:30 PM, Tehran, Weather by CustomWeather, © 2016

Note: Actual official high and low records may vary slightly from our data, if they occured in-between our weather recording intervals... More about our weather records

Advertising

Tehran Weather History for the Previous 24 Hours

Scroll right to see more
 ConditionsComfort  
Time TempWeatherWind HumidityBarometerVisibility
7:30 PM
Mon, Sep 26
81 °FClear.9 mph5%29.98 "Hg10 mi
7:00 PM82 °FClear.7 mph5%29.95 "Hg10 mi
6:50 PM82 °FClear.7 mph5%29.95 "Hg10 mi
6:00 PM82 °FSunny.9 mph5%29.95 "Hg10 mi
5:30 PM84 °FSunny.14 mph5%29.95 "Hg10 mi
5:00 PM86 °FSunny.9 mph6%29.95 "Hg10 mi
4:53 PM86 °FSunny.9 mph6%29.95 "Hg10 mi
4:30 PM86 °FSunny.14 mph6%29.95 "Hg10 mi
4:00 PM86 °FSunny.12 mph7%29.95 "Hg10 mi
3:30 PM86 °FSunny.14 mph7%29.95 "Hg10 mi
2:30 PM84 °FPassing clouds.12 mph8%29.95 "HgN/A
2:00 PM84 °FPassing clouds.12 mph8%29.95 "HgN/A
1:30 PM84 °FPassing clouds.12 mph8%29.95 "HgN/A
12:30 PM84 °FSunny.9 mph13%29.98 "Hg10 mi
12:00 PM82 °FSunny.9 mph19%29.98 "Hg10 mi
11:53 AM82 °FSunny.9 mph19%29.98 "Hg10 mi
11:30 AM81 °FSunny.7 mph21%29.98 "Hg10 mi
10:50 AM79 °FSunny.7 mph24%30.01 "Hg10 mi
10:30 AM79 °FSunny.7 mph24%30.01 "Hg10 mi
10:00 AM79 °FSunny.9 mph23%30.01 "Hg10 mi
9:55 AM79 °FSunny.9 mph23%30.01 "Hg10 mi
9:30 AM79 °FSunny.5 mph23%30.01 "Hg10 mi
9:00 AM79 °FSunny.No wind23%30.01 "Hg10 mi
8:30 AM77 °FSunny.7 mph24%30.01 "Hg10 mi
8:00 AM77 °FSunny.5 mph22%30.01 "Hg10 mi
7:30 AM77 °FSunny.No wind24%29.98 "Hg10 mi
7:00 AM72 °FSunny.No wind31%30.01 "Hg10 mi
6:30 AM68 °FSunny.5 mph30%29.98 "Hg10 mi
6:00 AM68 °FClear.No wind28%29.98 "Hg10 mi
5:30 AM66 °FClear.5 mph32%29.98 "Hg10 mi
5:00 AM66 °FClear.No wind30%29.95 "Hg10 mi
4:30 AM66 °FClear.No wind30%29.95 "Hg10 mi
4:00 AM68 °FClear.5 mph21%29.92 "Hg10 mi
3:30 AM68 °FClear.No wind21%29.92 "Hg10 mi
2:30 AM72 °FClear.No wind20%29.92 "Hg10 mi
2:00 AM72 °FClear.7 mph22%29.92 "Hg10 mi
1:30 AM72 °FClear.5 mph22%29.92 "Hg10 mi
1:00 AM72 °FClear.5 mph23%29.92 "Hg10 mi
12:30 AM72 °FClear.5 mph23%29.92 "Hg10 mi
12:00 AM73 °FClear.5 mph22%29.92 "Hg10 mi
11:30 PM
Sun, Sep 25
73 °FClear.No wind16%29.92 "Hg10 mi
11:00 PM73 °FClear.5 mph16%29.92 "Hg10 mi
10:30 PM75 °FClear.5 mph13%29.92 "Hg10 mi
9:30 PM75 °FClear.5 mph15%29.92 "Hg10 mi
9:00 PM75 °FClear.5 mph14%29.92 "Hg10 mi
8:30 PM75 °FClear.7 mph13%29.92 "Hg10 mi
8:00 PM77 °FClear.7 mph14%29.92 "Hg10 mi
Weather by CustomWeather, © 2016

See weather overviewHow to use our weather pages